STAR ONE C3

Last updated on Tue Jul 01 2025 00:02:46 GMT+0000 (Coordinated Universal Time)

1 38991U 12062A 25181.55293723 -.00000249 00000+0 00000+0 0 9998 2 38991 0.0202 24.2393 0001600 69.8545 308.8255 1.00271295 46225
UTC large
Height (km)
Speed (km/s)
/
Latitude / Longitude
Inclination (degrees)
Orbital Period (minutes)
Azimuth
Elevation
Range (km)
Doppler Factor

Next 0 passes for location: London (51.5072 / 0.1276)

Sorry there are no passes over London.